Regional Weather Roundup
Issued by NWS

Home | Current Version | Previous Version | Graphics & Text | Print | Product List | Glossary On
Versions: 1 2 3 4 5 6 7 8 9 10 11 12 13 14 15 16 17 18 19 20 21 22 23 24 25 26 27 28 29 30 31 32 33 34 35 36 37 38 39 40 41 42 43 44 45 46 47 48 49 50
000
ASUS43 KLMK 231902
RWRKY
KENTUCKY REGIONAL WEATHER ROUNDUP
NATIONAL WEATHER SERVICE LOUISVILLE KY
200 PM EST THU NOV 23 2017

NOTE "FAIR" INDICATES FEW OR NO CLOUDS BELOW 12,000 FEET
WITH NO SIGNIFICANT WEATHER AND/OR OBSTRUCTIONS TO VISIBILITY.

KYZ001>023-026-027-061>063-070>075-232000-
WESTERN AND SOUTH CENTRAL KENTUCKY

CITY           SKY/WX    TMP DP  RH WIND       PRES   REMARKS
PADUCAH        SUNNY     50  20  30 SW7       30.08F
HENDERSON      SUNNY     48  24  39 SW7       30.07F
OWENSBORO      SUNNY     48  27  44 SW6       30.08F
HOPKINSVILLE   SUNNY     49  22  34 CALM      30.07F
BOWLING GREEN  SUNNY     49  25  39 CALM      30.08F
GLASGOW        NOT AVBL
$$

KYZ024-025-028>034-038-045-046-053-232000-
NORTH CENTRAL KENTUCKY

CITY           SKY/WX    TMP DP  RH WIND       PRES   REMARKS
LOUISVILLE/SDF MOSUNNY   46  25  43 S5        30.07F
LOUISVILLE/LOU SUNNY     46  25  43 VRB3      30.08F
FORT KNOX      SUNNY     47  22  36 SW5       30.05F
$$

KYZ035>037-039>044-047>052-055>060-089>105-232000-
NORTHEAST KENTUCKY

CITY           SKY/WX    TMP DP  RH WIND       PRES   REMARKS
LEXINGTON      SUNNY     45  24  43 S3        30.06F
COVINGTON      MOSUNNY   43  27  53 S5        30.06F
FRANKFORT      SUNNY     45  22  40 CALM      30.06F
$$

KYZ054-064>069-076>088-106>120-232000-
SOUTHEAST KENTUCKY

CITY           SKY/WX    TMP DP  RH WIND       PRES   REMARKS
JACKSON        SUNNY     45  20  36 VRB3      30.05F
LONDON         SUNNY     49  21  33 CALM      30.05F
SOMERSET       SUNNY     46  23  39 W5        30.07F
MIDDLESBORO    SUNNY     53  25  34 CALM      30.04F
MONTICELLO     CLEAR     50  21  32 VRB7      30.07F
$$





USA.gov is the U.S. government's official web portal to all federal, state and local government web resources and services.